Location: Aciu?a
(46.2833°N, 22.4500°E)
Time: 12:17:33
(UTC+00:00)

CSL-04 Rocket - Pass Details

Date: 25 October 2021
Orbit: 805 x 861 km, 98.9° (Epoch: 06 December)

Event Time Altitude Azimuth Distance (km) Brightness Sun altitude
Exits shadow 16:57:25 25° 103° (ESE) 1,689 4.7 -16.3°
Maximum altitude 16:59:36 33° 64° (ENE) 1,418 4.4 -16.7°
Drops below altitude 10° 17:04:30 10° 2° (N) 2,508 6.1 -17.5°
Sets 17:07:05 0° 353° (N) 3,447 7.0 -18.0°
